Location: *
(38.3914°N, 75.0697°W)
Time: 04:00:28
(UTC+00:00)

USA 116 - Pass Details

Date: 17 February 2020
Orbit: 405 x 834 km, 97.9° (Epoch: 18 November)

Event Time Altitude Azimuth Distance (km) Brightness Sun altitude
Rises 10:31:12 0° 161° (SSE) 2,476 7.4 -15.9°
Reaches altitude 10° 10:33:18 10° 158° (SSE) 1,560 6.4 -15.5°
Maximum altitude 10:36:33 64° 76° (ENE) 471 3.6 -14.8°
Drops below altitude 10° 10:39:39 10° 354° (N) 1,483 5.8 -14.2°
Sets 10:41:37 0° 351° (N) 2,338 6.8 -13.8°
